Date String (YYYY-MM-DD hh:mm:ss) UTC,Instrument flags,absolute air pressure of the measurement (hPa),sample flow rate (lpm),inlet stack bypass flow (lpm),air temperature of the measurement (°C),ambient temperature measured by the external sensor (°C),aerosol sample conditioner tube jacket temperature (°C),OPC LED temperature (°C),internal box temperature (°C),relative humidity of the measurement (%),span deviation,mass concentration of particles derived from Lorenz-Mie calculation of OPC scattering (μg/m³),mass concentration of particles derived from Lorenz-Mie calculation of OPC scattering (μg/m³),mass concentration of particles derived from Lorenz-Mie calculation of OPC scattering (μg/m³)
DateTimeUTC,F1_M11,P_M11,Q1_M11,Q2_M11,T1_M11,T2_M11,T3_M11,T4_M11,T5_M11,U1_M11,ZSPAN_M11,X0_M11,X2_M11,X1_M11
2024-03-09 20:00:00,SystemResetWarning,0830.8,5.00,000.00,020.2,019.8,000.0,028.5,022.0,12.5,0000.0,0007.98,0004.75,0004.37
2024-03-09 20:01:00,SystemResetWarning,0830.8,5.00,000.00,020.2,019.8,000.0,028.5,022.0,12.9,0000.0,0007.99,0004.76,0004.37
2024-03-09 20:02:00,SystemResetWarning,0830.7,5.00,000.00,020.3,019.8,000.0,028.5,022.0,12.3,0000.0,0008.06,0004.78,0004.38
2024-03-09 20:03:00,SystemResetWarning,0830.7,5.00,000.00,020.3,019.8,000.0,028.5,022.0,12.2,0000.0,0008.06,0004.78,0004.39
2024-03-09 20:04:00,SystemResetWarning,0830.7,5.01,000.00,020.3,019.9,000.0,028.5,022.0,12.1,0000.0,0008.08,0004.81,0004.42
2024-03-09 20:05:00,SystemResetWarning,0830.7,5.00,000.00,020.3,019.9,000.0,028.5,022.0,12.0,0000.0,0008.00,0004.82,0004.45
2024-03-09 20:06:00,SystemResetWarning,0830.7,5.00,000.00,020.3,019.9,000.0,028.5,022.1,12.6,0000.0,0007.85,0004.80,0004.47
2024-03-09 20:07:00,SystemResetWarning,0830.7,5.00,000.00,020.3,019.9,000.0,028.5,022.1,12.9,0000.0,0007.80,0004.79,0004.47
2024-03-09 20:08:00,SystemResetWarning,0830.7,5.00,000.00,020.3,019.9,000.0,028.6,022.1,12.1,0000.0,0007.52,0004.78,0004.48
2024-03-09 20:09:00,SystemResetWarning,0830.7,5.00,000.00,020.3,019.9,000.0,028.6,022.1,12.4,0000.0,0007.35,0004.75,0004.48
2024-03-09 20:10:00,SystemResetWarning,0830.7,5.00,000.00,020.4,019.9,000.0,028.6,022.1,12.0,0000.0,0007.39,0004.75,0004.49
2024-03-09 20:11:00,SystemResetWarning,0830.7,5.01,000.00,020.4,019.9,000.0,028.6,022.1,12.1,0000.0,0007.44,0004.76,0004.49
2024-03-09 20:12:00,SystemResetWarning,0830.7,5.00,000.00,020.4,020.0,000.0,028.6,022.1,11.7,0000.0,0007.43,0004.76,0004.49
2024-03-09 20:13:00,SystemResetWarning,0830.7,5.00,000.00,020.4,020.0,000.0,028.6,022.2,11.3,0000.0,0007.47,0004.78,0004.49
2024-03-09 20:14:00,SystemResetWarning,0830.6,5.00,000.00,020.4,020.0,000.0,028.6,022.2,11.6,0000.0,0007.39,0004.76,0004.49
2024-03-09 20:15:00,SystemResetWarning,0830.6,5.01,000.00,020.4,020.0,000.0,028.7,022.2,11.6,0000.0,0007.31,0004.72,0004.47
2024-03-09 20:16:00,SystemResetWarning,0830.6,4.98,000.00,020.4,020.0,000.0,028.7,022.2,12.2,0000.0,0007.39,0004.73,0004.44
2024-03-09 20:17:00,SystemResetWarning,0830.5,4.99,000.00,020.5,020.0,000.0,028.7,022.2,13.8,0000.0,0007.36,0004.71,0004.41
2024-03-09 20:18:00,SystemResetWarning,0830.5,5.00,000.00,020.5,020.0,000.0,028.7,022.2,13.3,0000.0,0007.38,0004.70,0004.38
2024-03-09 20:19:00,SystemResetWarning,0830.4,5.01,000.00,020.5,020.1,000.0,028.7,022.2,12.7,0000.0,0007.45,0004.69,0004.35
2024-03-09 20:20:00,SystemResetWarning,0830.4,5.00,000.00,020.5,020.1,000.0,028.7,022.2,13.1,0000.0,0007.45,0004.67,0004.31
2024-03-09 20:21:00,SystemResetWarning,0830.5,5.01,000.00,020.5,020.1,000.0,028.7,022.3,12.6,0000.0,0007.57,0004.62,0004.26
2024-03-09 20:22:00,SystemResetWarning,0830.5,5.00,000.00,020.5,020.1,000.0,028.7,022.3,12.0,0000.0,0007.59,0004.58,0004.23
2024-03-09 20:23:00,SystemResetWarning,0830.4,5.00,000.00,020.5,020.1,000.0,028.8,022.3,12.3,0000.0,0007.97,0004.57,0004.21
2024-03-09 20:24:00,SystemResetWarning,0830.4,5.00,000.00,020.6,020.1,000.0,028.8,022.3,12.0,0000.0,0007.93,0004.52,0004.17
2024-03-09 20:25:00,SystemResetWarning,0830.4,5.00,000.00,020.6,020.1,000.0,028.8,022.3,11.9,0000.0,0007.84,0004.48,0004.14
2024-03-09 20:26:00,SystemResetWarning,0830.6,4.99,000.00,020.6,020.1,000.0,028.8,022.3,11.5,0000.0,0007.91,0004.48,0004.13
2024-03-09 20:27:00,SystemResetWarning,0830.4,5.00,000.00,020.6,020.1,000.0,028.8,022.3,11.7,0000.0,0007.89,0004.45,0004.12
2024-03-09 20:28:00,SystemResetWarning,0830.4,5.00,000.00,020.6,020.2,000.0,028.8,022.4,12.0,0000.0,0008.39,0004.44,0004.10
2024-03-09 20:29:00,SystemResetWarning,0830.4,5.00,000.00,020.6,020.2,000.0,028.8,022.4,12.4,0000.0,0008.33,0004.41,0004.08
2024-03-09 20:30:00,SystemResetWarning,0830.3,5.00,000.00,020.6,020.2,000.0,028.9,022.4,11.5,0000.0,0008.31,0004.40,0004.07
2024-03-09 20:31:00,SystemResetWarning,0830.3,5.00,000.00,020.6,020.2,000.0,028.9,022.4,11.4,0000.0,0008.25,0004.37,0004.06
2024-03-09 20:32:00,SystemResetWarning,0830.3,5.00,000.00,020.6,020.2,000.0,028.9,022.4,11.6,0000.0,0008.18,0004.40,0004.06
2024-03-09 20:33:00,SystemResetWarning,0830.3,5.00,000.00,020.6,020.2,000.0,028.9,022.4,11.5,0000.0,0008.25,0004.41,0004.06
2024-03-09 20:34:00,SystemResetWarning,0830.3,5.00,000.00,020.7,020.2,000.0,028.9,022.4,10.8,0000.0,0007.89,0004.42,0004.08
2024-03-09 20:35:00,SystemResetWarning,0830.3,5.00,000.00,020.7,020.2,000.0,028.9,022.4,10.9,0000.0,0007.95,0004.44,0004.09
2024-03-09 20:36:00,SystemResetWarning,0830.2,5.00,000.00,020.7,020.2,000.0,028.9,022.4,10.9,0000.0,0007.94,0004.44,0004.09
2024-03-09 20:37:00,SystemResetWarning,0830.2,5.00,000.00,020.7,020.2,000.0,028.9,022.4,11.3,0000.0,0008.42,0004.44,0004.09
2024-03-09 20:38:00,SystemResetWarning,0830.3,5.00,000.00,020.7,020.2,000.0,028.9,022.4,11.5,0000.0,0008.83,0004.45,0004.09
2024-03-09 20:39:00,SystemResetWarning,0830.2,5.00,000.00,020.7,020.2,000.0,029.0,022.5,11.3,0000.0,0008.92,0004.45,0004.09
2024-03-09 20:40:00,SystemResetWarning,0830.3,5.00,000.00,020.7,020.2,000.0,029.0,022.5,11.1,0000.0,0009.19,0004.46,0004.10
2024-03-09 20:41:00,SystemResetWarning,0830.2,5.00,000.00,020.7,020.3,000.0,029.0,022.5,11.4,0000.0,0009.17,0004.46,0004.11
2024-03-09 20:42:00,SystemResetWarning,0830.2,5.01,000.00,020.7,020.3,000.0,029.0,022.5,11.3,0000.0,0009.20,0004.48,0004.13
2024-03-09 20:43:00,SystemResetWarning,0830.2,5.00,000.00,020.8,020.3,000.0,029.0,022.5,11.3,0000.0,0009.88,0004.45,0004.13
2024-03-09 20:44:00,SystemResetWarning,0830.1,5.00,000.00,020.8,020.3,000.0,029.0,022.5,11.9,0000.0,0010.01,0004.44,0004.13
2024-03-09 20:45:00,SystemResetWarning,0830.1,4.99,000.00,020.8,020.3,000.0,029.0,022.5,12.1,0000.0,0010.02,0004.44,0004.12
2024-03-09 20:46:00,SystemResetWarning,0830.1,4.99,000.00,020.8,020.3,000.0,029.0,022.6,11.8,0000.0,0009.98,0004.44,0004.12
2024-03-09 20:47:00,SystemResetWarning,0830.1,5.00,000.00,020.8,020.3,000.0,029.1,022.6,11.9,0000.0,0010.15,0004.48,0004.13
2024-03-09 20:48:00,SystemResetWarning,0830.1,5.01,000.00,020.8,020.4,000.0,029.1,022.6,12.2,0000.0,0010.13,0004.52,0004.16
2024-03-09 20:49:00,SystemResetWarning,0830.1,5.01,000.00,020.8,020.4,000.0,029.1,022.6,11.4,0000.0,0009.73,0004.56,0004.20
2024-03-09 20:50:00,SystemResetWarning,0830.0,5.01,000.00,020.9,020.4,000.0,029.1,022.6,11.3,0000.0,0009.44,0004.59,0004.23
2024-03-09 20:51:00,SystemResetWarning,0830.1,4.98,000.00,020.9,020.4,000.0,029.1,022.7,11.2,0000.0,0009.09,0004.63,0004.27
2024-03-09 20:52:00,SystemResetWarning,0830.1,4.99,000.00,020.9,020.5,000.0,029.1,022.7,11.5,0000.0,0009.17,0004.69,0004.30
2024-03-09 20:53:00,SystemResetWarning,0830.1,5.02,000.00,020.9,020.5,000.0,029.1,022.7,11.7,0000.0,0009.23,0004.74,0004.33
2024-03-09 20:54:00,SystemResetWarning,0830.1,5.00,000.00,020.9,020.5,000.0,029.1,022.7,12.4,0000.0,0008.58,0004.81,0004.39
2024-03-09 20:55:00,SystemResetWarning,0830.0,5.00,000.00,021.0,020.5,000.0,029.2,022.7,11.7,0000.0,0008.34,0004.84,0004.43
2024-03-09 20:56:00,SystemResetWarning,0830.0,5.00,000.00,021.0,020.5,000.0,029.2,022.7,11.2,0000.0,0008.44,0004.89,0004.48
2024-03-09 20:57:00,SystemResetWarning,0830.0,5.00,000.00,021.0,020.5,000.0,029.2,022.7,10.8,0000.0,0008.44,0004.91,0004.52
2024-03-09 20:58:00,SystemResetWarning,0830.0,5.00,000.00,021.0,020.5,000.0,029.2,022.7,10.7,0000.0,0008.33,0004.93,0004.57
2024-03-09 20:59:00,SystemResetWarning,0830.0,5.00,000.00,021.0,020.5,000.0,029.2,022.8,10.9,0000.0,0008.16,0004.95,0004.58
